Location: Newark
(32.9900°N, 111.5400°W)
Time: 12:37:43
(UTC+00:00)

Envisat - Pass Details

Date: 23 November 2019
Orbit: 764 x 766 km, 98.1° (Epoch: 15 December)

Event Time Altitude Azimuth Distance (km) Brightness Sun altitude
Rises 13:34:51 0° 23° (NNE) 3,233 6.3 -6.5°
Reaches altitude 10° 13:37:21 10° 32° (NNE) 2,303 5.6 -6.0°
Maximum altitude 13:41:59 35° 98° (E) 1,214 4.9 -5.1°
Drops below altitude 10° 13:46:34 10° 164° (SSE) 2,291 6.1 -4.2°
Sets 13:49:03 0° 172° (S) 3,212 6.7 -3.7°
